Location: Champs
(48.8539°N, 2.6040°E)
Time: 17:31:13
(UTC+00:00)

METEOR 2-5 DEB - Visible Passes

Search period start: 11 August 2022 00:00
Search period end: 21 August 2022 00:00
Orbit: 725 x 744 km, 81.2° (Epoch: 09 August)

Date Brightness Start Highest point End Pass type
(mag) Time Alt. Az. Time Alt. Az. Time Alt. Az.
11 Aug ? 01:05:51 12° W 01:07:40 14° WNW 01:10:24 10° NNW visible
11 Aug ? 22:40:09 42° E 22:40:09 42° E 22:44:43 10° NNE visible
12 Aug ? 00:19:43 26° W 00:20:39 28° WNW 00:24:57 10° N visible
12 Aug ? 21:53:59 20° E 21:53:59 20° E 21:57:26 10° NE visible
12 Aug ? 23:33:33 56° W 23:33:52 57° WNW 23:38:49 10° N visible
13 Aug ? 22:47:22 67° E 22:47:22 67° E 22:52:18 10° NNE visible
14 Aug ? 00:26:55 17° W 00:28:19 19° WNW 00:31:49 10° NNW visible
14 Aug ? 22:01:09 31° E 22:01:09 31° E 22:05:22 10° NNE visible
14 Aug ? 23:40:43 35° W 23:41:22 36° WNW 23:46:00 10° N visible
15 Aug ? 21:14:55 15° E 21:14:55 15° E 21:17:37 10° NE visible
15 Aug ? 22:54:28 76° WSW 22:54:40 77° WNW 22:59:41 10° N visible
16 Aug ? 00:34:01 10° W 00:36:03 12° WNW 00:38:07 10° NNW visible
16 Aug ? 22:08:12 49° E 22:08:12 49° E 22:12:59 10° NNE visible
16 Aug ? 23:47:46 22° W 23:48:55 24° WNW 23:52:59 10° N visible
17 Aug ? 21:21:55 23° E 21:21:55 23° E 21:25:48 10° NE visible
17 Aug ? 23:01:28 46° W 23:02:03 48° WNW 23:06:53 10° N visible
18 Aug ? 20:35:36 11° E 20:35:51 11° E 20:36:59 10° ENE visible
18 Aug ? 22:15:09 77° SE 22:15:23 80° E 22:20:24 10° NNE visible
18 Aug ? 23:54:42 14° W 23:56:31 16° WNW 23:59:37 10° NNW visible
19 Aug ? 21:28:48 36° E 21:28:57 36° E 21:33:31 10° NNE visible
19 Aug ? 23:08:21 28° W 23:09:28 31° WNW 23:13:56 10° N visible
20 Aug ? 20:42:25 17° E 20:42:45 18° E 20:45:59 10° NE visible
20 Aug ? 22:21:58 58° WSW 22:22:39 65° WNW 22:27:38 10° N visible
